GEFSCGP_prec_meanprecacc_006.txt.gz
Total_Precipitation_Accumulation
0.00 0.00 0.00 0.00 0.00 0.00 0.00 0.00 0.00 0.00 0.00 0.00 0.00 0.00 0.00 0.02 0.07 0.11 0.19 0.23 0.23 0.20 0.14 0.13 0.18 0.26 0.21 0.13 0.12 0.06 0.02 0.02 0.02 0.02 0.02 0.02 0.03 0.02 0.02 0.02 0.02 0.02 0.02 0.04
0.00 0.00 0.00 0.00 0.00 0.00 0.00 0.00 0.00 0.00 0.00 0.00 0.00 0.00 0.01 0.04 0.05 0.04 0.10 0.15 0.12 0.15 0.17 0.24 0.38 0.45 0.36 0.28 0.23 0.12 0.07 0.05 0.04 0.06 0.05 0.05 0.08 0.07 0.04 0.04 0.03 0.03 0.04 0.03
0.00 0.00 0.00 0.00 0.00 0.00 0.00 0.00 0.00 0.00 0.00 0.00 0.00 0.00 0.01 0.03 0.04 0.04 0.03 0.06 0.06 0.05 0.07 0.14 0.29 0.44 0.54 0.53 0.44 0.31 0.25 0.21 0.16 0.16 0.13 0.09 0.10 0.10 0.09 0.09 0.04 0.02 0.04 0.05
0.00 0.00 0.00 0.00 0.00 0.00 0.00 0.00 0.00 0.00 0.00 0.00 0.00 0.00 0.00 0.00 0.02 0.03 0.05 0.07 0.06 0.03 0.05 0.11 0.19 0.32 0.51 0.66 0.70 0.64 0.54 0.46 0.35 0.30 0.25 0.17 0.12 0.07 0.06 0.08 0.05 0.04 0.08 0.10
0.01 0.00 0.00 0.00 0.00 0.00 0.00 0.00 0.00 0.00 0.00 0.00 0.00 0.00 0.00 0.00 0.00 0.01 0.06 0.12 0.11 0.09 0.10 0.12 0.18 0.28 0.35 0.44 0.55 0.63 0.57 0.46 0.33 0.26 0.21 0.13 0.07 0.03 0.01 0.03 0.03 0.05 0.12 0.10
0.03 0.02 0.01 0.01 0.00 0.00 0.00 0.00 0.00 0.00 0.00 0.00 0.00 0.00 0.00 0.00 0.01 0.01 0.06 0.11 0.14 0.20 0.20 0.20 0.26 0.33 0.34 0.33 0.34 0.38 0.39 0.31 0.22 0.16 0.11 0.07 0.03 0.02 0.02 0.04 0.03 0.06 0.06 0.03
0.05 0.03 0.03 0.03 0.02 0.00 0.00 0.01 0.01 0.00 0.00 0.00 0.00 0.00 0.01 0.01 0.02 0.04 0.05 0.10 0.18 0.29 0.35 0.39 0.42 0.41 0.41 0.36 0.32 0.34 0.31 0.21 0.12 0.06 0.02 0.02 0.01 0.01 0.02 0.03 0.02 0.02 0.03 0.03
0.11 0.04 0.04 0.05 0.04 0.01 0.00 0.01 0.04 0.02 0.01 0.00 0.00 0.02 0.01 0.01 0.02 0.06 0.09 0.11 0.20 0.30 0.37 0.45 0.48 0.34 0.26 0.22 0.20 0.20 0.16 0.08 0.03 0.01 0.01 0.01 0.00 0.00 0.00 0.01 0.01 0.02 0.03 0.04
0.04 0.03 0.04 0.06 0.06 0.02 0.02 0.03 0.03 0.03 0.01 0.00 0.02 0.04 0.01 0.02 0.03 0.06 0.12 0.17 0.19 0.23 0.25 0.24 0.19 0.18 0.17 0.16 0.12 0.08 0.05 0.02 0.02 0.02 0.02 0.01 0.01 0.01 0.00 0.00 0.01 0.01 0.01 0.01
0.00 0.01 0.02 0.01 0.02 0.02 0.04 0.06 0.03 0.02 0.02 0.01 0.03 0.06 0.03 0.03 0.03 0.05 0.18 0.44 0.42 0.28 0.25 0.22 0.18 0.15 0.13 0.09 0.05 0.02 0.03 0.03 0.02 0.02 0.01 0.01 0.00 0.01 0.00 0.00 0.00 0.00 0.00 0.00
0.00 0.01 0.03 0.03 0.02 0.04 0.09 0.09 0.06 0.03 0.05 0.05 0.04 0.04 0.05 0.14 0.10 0.07 0.18 0.33 0.32 0.19 0.13 0.11 0.08 0.06 0.07 0.13 0.13 0.06 0.03 0.02 0.01 0.00 0.00 0.00 0.00 0.00 0.00 0.00 0.00 0.00 0.00 0.00
0.00 0.00 0.02 0.03 0.05 0.04 0.07 0.12 0.09 0.05 0.03 0.03 0.03 0.06 0.06 0.13 0.09 0.06 0.15 0.14 0.12 0.08 0.04 0.03 0.03 0.02 0.04 0.05 0.05 0.03 0.01 0.01 0.00 0.00 0.00 0.00 0.00 0.00 0.00 0.00 0.00 0.00 0.00 0.00
0.00 0.00 0.00 0.03 0.07 0.06 0.05 0.05 0.04 0.02 0.01 0.01 0.03 0.06 0.04 0.01 0.00 0.01 0.03 0.03 0.02 0.02 0.01 0.00 0.00 0.01 0.01 0.03 0.04 0.03 0.01 0.01 0.00 0.00 0.00 0.00 0.00 0.00 0.00 0.00 0.00 0.00 0.00 0.00
0.00 0.00 0.00 0.02 0.03 0.03 0.03 0.04 0.04 0.02 0.01 0.00 0.01 0.02 0.01 0.00 0.00 0.00 0.00 0.01 0.01 0.00 0.00 0.00 0.00 0.00 0.01 0.03 0.05 0.05 0.03 0.02 0.01 0.00 0.00 0.00 0.00 0.00 0.00 0.00 0.00 0.00 0.00 0.00
0.00 0.00 0.00 0.00 0.00 0.00 0.01 0.02 0.02 0.03 0.02 0.00 0.01 0.00 0.00 0.00 0.00 0.00 0.00 0.01 0.00 0.00 0.00 0.00 0.00 0.00 0.01 0.03 0.06 0.09 0.07 0.03 0.01 0.01 0.00 0.00 0.00 0.00 0.00 0.00 0.00 0.00 0.00 0.00
0.00 0.00 0.00 0.00 0.00 0.01 0.04 0.06 0.04 0.02 0.01 0.00 0.00 0.00 0.00 0.00 0.00 0.00 0.00 0.01 0.01 0.00 0.00 0.00 0.00 0.00 0.00 0.00 0.01 0.04 0.05 0.04 0.02 0.01 0.01 0.01 0.01 0.00 0.00 0.00 0.00 0.00 0.00 0.00
0.00 0.00 0.00 0.00 0.01 0.02 0.05 0.08 0.11 0.08 0.03 0.00 0.00 0.00 0.00 0.00 0.00 0.00 0.00 0.01 0.01 0.01 0.00 0.00 0.00 0.00 0.00 0.00 0.00 0.01 0.02 0.02 0.02 0.02 0.02 0.02 0.02 0.01 0.01 0.01 0.01 0.00 0.00 0.00
0.00 0.00 0.01 0.01 0.02 0.06 0.06 0.02 0.02 0.02 0.01 0.00 0.00 0.00 0.00 0.00 0.00 0.00 0.00 0.01 0.02 0.01 0.00 0.00 0.01 0.01 0.00 0.00 0.00 0.00 0.01 0.02 0.02 0.04 0.07 0.08 0.07 0.04 0.03 0.03 0.02 0.01 0.01 0.00
0.00 0.00 0.01 0.01 0.03 0.05 0.05 0.02 0.00 0.00 0.00 0.00 0.00 0.00 0.00 0.00 0.00 0.00 0.00 0.00 0.01 0.02 0.02 0.01 0.01 0.02 0.02 0.01 0.00 0.00 0.00 0.01 0.03 0.05 0.08 0.12 0.12 0.06 0.03 0.03 0.01 0.01 0.01 0.01
0.00 0.00 0.00 0.01 0.04 0.06 0.02 0.00 0.00 0.00 0.00 0.00 0.00 0.00 0.01 0.01 0.01 0.00 0.00 0.00 0.00 0.02 0.06 0.05 0.03 0.04 0.05 0.02 0.00 0.00 0.00 0.01 0.03 0.05 0.08 0.11 0.10 0.06 0.02 0.01 0.00 0.00 0.00 0.00
0.00 0.00 0.00 0.00 0.03 0.03 0.00 0.00 0.00 0.00 0.00 0.00 0.00 0.00 0.00 0.01 0.01 0.01 0.00 0.00 0.00 0.01 0.05 0.07 0.07 0.09 0.07 0.04 0.02 0.02 0.02 0.03 0.05 0.07 0.06 0.09 0.10 0.04 0.01 0.00 0.00 0.00 0.00 0.00
0.00 0.00 0.00 0.00 0.03 0.02 0.00 0.00 0.00 0.00 0.00 0.00 0.00 0.00 0.00 0.00 0.01 0.02 0.02 0.01 0.00 0.01 0.03 0.09 0.13 0.13 0.10 0.09 0.10 0.09 0.08 0.08 0.08 0.07 0.06 0.06 0.05 0.02 0.02 0.02 0.01 0.00 0.00 0.00
0.00 0.00 0.00 0.00 0.00 0.00 0.00 0.00 0.00 0.00 0.00 0.00 0.00 0.00 0.00 0.00 0.00 0.01 0.01 0.02 0.04 0.05 0.04 0.06 0.09 0.08 0.08 0.09 0.09 0.12 0.16 0.11 0.07 0.05 0.05 0.04 0.03 0.02 0.02 0.02 0.03 0.02 0.01 0.01
0.00 0.00 0.00 0.00 0.00 0.00 0.00 0.00 0.00 0.00 0.00 0.00 0.00 0.00 0.00 0.00 0.00 0.00 0.00 0.01 0.03 0.03 0.01 0.01 0.01 0.01 0.02 0.03 0.05 0.07 0.12 0.10 0.05 0.04 0.06 0.07 0.04 0.02 0.02 0.01 0.01 0.03 0.04 0.04
0.00 0.00 0.00 0.00 0.00 0.00 0.00 0.00 0.00 0.00 0.00 0.00 0.00 0.00 0.00 0.00 0.00 0.00 0.00 0.00 0.01 0.01 0.00 0.00 0.00 0.00 0.01 0.02 0.02 0.03 0.04 0.06 0.06 0.04 0.09 0.14 0.10 0.05 0.03 0.02 0.01 0.02 0.04 0.06
0.00 0.00 0.00 0.00 0.00 0.00 0.00 0.00 0.00 0.00 0.00 0.00 0.00 0.00 0.00 0.00 0.00 0.00 0.00 0.00 0.00 0.00 0.00 0.00 0.00 0.00 0.00 0.00 0.01 0.03 0.04 0.05 0.07 0.07 0.06 0.07 0.07 0.07 0.05 0.02 0.01 0.01 0.01 0.01

GEFSCGP_prec_meanprecacc_012.txt.gz
Total_Precipitation_Accumulation
0.00 0.00 0.00 0.00 0.00 0.00 0.00 0.00 0.00 0.00 0.00 0.00 0.00 0.00 0.01 0.03 0.07 0.12 0.19 0.23 0.24 0.21 0.17 0.16 0.22 0.30 0.25 0.21 0.26 0.20 0.18 0.18 0.14 0.10 0.08 0.08 0.09 0.08 0.06 0.04 0.04 0.03 0.03 0.06
0.00 0.00 0.00 0.00 0.00 0.00 0.00 0.00 0.00 0.00 0.00 0.00 0.00 0.00 0.02 0.05 0.07 0.07 0.12 0.16 0.14 0.19 0.21 0.26 0.41 0.47 0.39 0.36 0.42 0.44 0.47 0.45 0.33 0.26 0.22 0.22 0.27 0.23 0.17 0.13 0.09 0.07 0.06 0.06
0.00 0.00 0.00 0.00 0.00 0.00 0.00 0.00 0.00 0.00 0.00 0.00 0.00 0.00 0.02 0.08 0.13 0.15 0.13 0.13 0.12 0.11 0.12 0.18 0.33 0.50 0.62 0.68 0.73 0.79 0.83 0.74 0.56 0.46 0.36 0.32 0.35 0.34 0.31 0.27 0.17 0.11 0.11 0.12
0.00 0.00 0.00 0.00 0.00 0.00 0.00 0.00 0.00 0.00 0.00 0.00 0.00 0.00 0.01 0.03 0.06 0.11 0.16 0.17 0.11 0.09 0.12 0.20 0.31 0.50 0.77 1.02 1.22 1.27 1.21 1.05 0.86 0.71 0.55 0.43 0.36 0.29 0.25 0.25 0.19 0.15 0.17 0.19
0.01 0.00 0.00 0.00 0.00 0.00 0.00 0.00 0.00 0.00 0.00 0.00 0.00 0.00 0.00 0.00 0.01 0.03 0.09 0.15 0.16 0.19 0.24 0.31 0.42 0.60 0.71 0.92 1.11 1.25 1.22 1.11 0.95 0.79 0.60 0.40 0.29 0.22 0.21 0.20 0.15 0.15 0.22 0.21
0.03 0.02 0.01 0.01 0.00 0.00 0.00 0.00 0.00 0.00 0.00 0.00 0.00 0.00 0.00 0.00 0.01 0.01 0.07 0.13 0.19 0.30 0.35 0.40 0.52 0.66 0.68 0.72 0.80 0.88 0.91 0.86 0.76 0.63 0.49 0.40 0.33 0.28 0.25 0.22 0.17 0.16 0.16 0.15
0.05 0.03 0.03 0.03 0.02 0.01 0.00 0.01 0.01 0.00 0.00 0.00 0.00 0.00 0.01 0.01 0.02 0.04 0.06 0.12 0.23 0.40 0.50 0.60 0.70 0.74 0.78 0.74 0.71 0.74 0.73 0.65 0.52 0.41 0.31 0.28 0.23 0.21 0.20 0.19 0.16 0.16 0.16 0.16
0.11 0.04 0.04 0.06 0.05 0.03 0.02 0.03 0.05 0.02 0.01 0.00 0.00 0.02 0.01 0.01 0.02 0.07 0.10 0.14 0.27 0.43 0.53 0.66 0.73 0.62 0.53 0.48 0.47 0.47 0.42 0.32 0.23 0.19 0.17 0.15 0.13 0.12 0.11 0.11 0.12 0.13 0.13 0.12
0.04 0.03 0.04 0.06 0.07 0.06 0.06 0.08 0.06 0.05 0.02 0.01 0.02 0.04 0.01 0.02 0.04 0.08 0.16 0.23 0.28 0.35 0.38 0.40 0.38 0.37 0.37 0.34 0.29 0.23 0.18 0.12 0.08 0.06 0.07 0.06 0.06 0.06 0.05 0.06 0.06 0.06 0.06 0.04
0.00 0.01 0.02 0.02 0.03 0.03 0.07 0.13 0.11 0.08 0.05 0.02 0.04 0.06 0.03 0.04 0.05 0.07 0.20 0.46 0.44 0.32 0.30 0.30 0.30 0.30 0.28 0.22 0.16 0.11 0.09 0.07 0.05 0.04 0.04 0.04 0.03 0.03 0.03 0.04 0.03 0.02 0.02 0.01
0.00 0.01 0.03 0.03 0.03 0.05 0.11 0.14 0.12 0.09 0.08 0.06 0.04 0.05 0.05 0.15 0.11 0.09 0.19 0.34 0.32 0.19 0.14 0.13 0.12 0.13 0.16 0.21 0.19 0.10 0.06 0.04 0.02 0.01 0.01 0.01 0.01 0.01 0.01 0.01 0.01 0.01 0.00 0.00
0.01 0.01 0.02 0.04 0.06 0.05 0.09 0.16 0.15 0.12 0.09 0.06 0.04 0.07 0.06 0.14 0.10 0.07 0.16 0.15 0.12 0.08 0.05 0.04 0.04 0.04 0.07 0.09 0.09 0.05 0.03 0.02 0.01 0.00 0.00 0.00 0.00 0.00 0.00 0.00 0.00 0.00 0.00 0.00
0.00 0.00 0.01 0.03 0.07 0.07 0.07 0.08 0.10 0.10 0.08 0.09 0.10 0.11 0.04 0.01 0.01 0.01 0.03 0.03 0.03 0.02 0.01 0.00 0.01 0.01 0.02 0.04 0.06 0.05 0.04 0.03 0.02 0.01 0.00 0.00 0.00 0.00 0.00 0.00 0.00 0.00 0.00 0.00
0.00 0.00 0.00 0.02 0.04 0.03 0.04 0.06 0.07 0.08 0.09 0.07 0.06 0.06 0.03 0.01 0.00 0.00 0.00 0.01 0.01 0.00 0.00 0.00 0.00 0.00 0.01 0.03 0.05 0.06 0.06 0.04 0.03 0.02 0.01 0.00 0.00 0.00 0.00 0.00 0.00 0.00 0.00 0.00
0.00 0.00 0.00 0.01 0.01 0.01 0.01 0.03 0.05 0.05 0.05 0.05 0.05 0.05 0.04 0.02 0.01 0.00 0.00 0.01 0.00 0.00 0.00 0.00 0.00 0.00 0.01 0.03 0.06 0.10 0.10 0.07 0.04 0.02 0.02 0.01 0.01 0.00 0.00 0.00 0.00 0.00 0.00 0.00
0.00 0.00 0.01 0.02 0.03 0.04 0.07 0.09 0.07 0.04 0.02 0.02 0.02 0.03 0.03 0.02 0.01 0.01 0.00 0.01 0.01 0.00 0.00 0.00 0.00 0.00 0.00 0.00 0.02 0.05 0.08 0.08 0.05 0.04 0.04 0.03 0.02 0.01 0.01 0.00 0.00 0.00 0.00 0.00
0.00 0.00 0.00 0.02 0.07 0.08 0.08 0.10 0.15 0.16 0.11 0.07 0.06 0.05 0.03 0.01 0.01 0.00 0.00 0.01 0.01 0.01 0.00 0.00 0.00 0.00 0.00 0.00 0.00 0.01 0.03 0.05 0.05 0.04 0.05 0.04 0.04 0.04 0.03 0.03 0.01 0.01 0.00 0.00
0.01 0.00 0.01 0.03 0.08 0.11 0.07 0.02 0.04 0.06 0.09 0.09 0.08 0.06 0.03 0.01 0.00 0.00 0.00 0.01 0.02 0.01 0.01 0.00 0.01 0.01 0.00 0.00 0.00 0.00 0.01 0.03 0.04 0.06 0.10 0.12 0.12 0.10 0.08 0.07 0.04 0.03 0.02 0.00
0.00 0.00 0.01 0.02 0.05 0.07 0.06 0.02 0.01 0.01 0.00 0.00 0.01 0.01 0.01 0.00 0.00 0.00 0.00 0.00 0.01 0.02 0.02 0.01 0.01 0.02 0.03 0.01 0.00 0.00 0.01 0.03 0.04 0.07 0.11 0.18 0.19 0.13 0.09 0.07 0.05 0.05 0.05 0.04
0.00 0.00 0.00 0.02 0.06 0.07 0.03 0.01 0.00 0.00 0.00 0.00 0.00 0.00 0.01 0.01 0.01 0.00 0.00 0.00 0.00 0.02 0.06 0.06 0.03 0.05 0.06 0.03 0.01 0.01 0.01 0.02 0.04 0.08 0.13 0.17 0.16 0.11 0.07 0.05 0.04 0.04 0.05 0.05
0.00 0.00 0.00 0.01 0.04 0.04 0.01 0.00 0.00 0.00 0.00 0.00 0.00 0.00 0.00 0.01 0.01 0.01 0.00 0.00 0.00 0.01 0.05 0.08 0.09 0.11 0.09 0.05 0.04 0.03 0.02 0.04 0.07 0.11 0.13 0.18 0.19 0.11 0.05 0.03 0.02 0.02 0.03 0.03
0.00 0.00 0.00 0.01 0.03 0.02 0.00 0.00 0.00 0.00 0.00 0.00 0.00 0.00 0.00 0.00 0.01 0.02 0.02 0.01 0.00 0.01 0.03 0.09 0.14 0.15 0.12 0.12 0.14 0.12 0.10 0.10 0.11 0.13 0.13 0.17 0.18 0.14 0.08 0.05 0.03 0.02 0.02 0.02
0.00 0.00 0.00 0.00 0.00 0.00 0.00 0.00 0.00 0.00 0.00 0.00 0.00 0.00 0.00 0.00 0.00 0.01 0.01 0.02 0.05 0.05 0.04 0.06 0.09 0.09 0.09 0.14 0.17 0.21 0.23 0.18 0.14 0.13 0.14 0.15 0.16 0.15 0.10 0.06 0.06 0.05 0.03 0.03
0.00 0.00 0.00 0.00 0.00 0.00 0.00 0.00 0.00 0.00 0.00 0.00 0.00 0.00 0.00 0.00 0.00 0.00 0.00 0.01 0.03 0.03 0.01 0.01 0.01 0.01 0.02 0.05 0.09 0.16 0.22 0.20 0.15 0.13 0.16 0.18 0.15 0.14 0.13 0.10 0.09 0.08 0.06 0.05
0.00 0.00 0.00 0.00 0.00 0.00 0.00 0.00 0.00 0.00 0.00 0.00 0.00 0.00 0.00 0.00 0.00 0.00 0.00 0.00 0.01 0.01 0.00 0.00 0.00 0.00 0.01 0.02 0.03 0.05 0.09 0.12 0.13 0.11 0.17 0.22 0.19 0.16 0.13 0.12 0.11 0.10 0.08 0.07
0.00 0.00 0.00 0.00 0.00 0.00 0.00 0.00 0.00 0.00 0.00 0.00 0.00 0.00 0.00 0.00 0.00 0.00 0.00 0.00 0.00 0.00 0.00 0.00 0.00 0.00 0.00 0.00 0.01 0.03 0.05 0.07 0.10 0.11 0.10 0.11 0.11 0.12 0.11 0.09 0.08 0.06 0.03 0.02

GEFSCGP_prec_meanprecacc_018.txt.gz
Total_Precipitation_Accumulation
0.00 0.00 0.00 0.00 0.00 0.00 0.00 0.00 0.00 0.00 0.00 0.00 0.00 0.00 0.01 0.03 0.07 0.12 0.19 0.23 0.24 0.21 0.17 0.17 0.23 0.32 0.28 0.24 0.29 0.27 0.32 0.49 0.57 0.48 0.46 0.44 0.38 0.28 0.21 0.15 0.13 0.12 0.11 0.16
0.00 0.00 0.00 0.00 0.00 0.00 0.00 0.00 0.00 0.00 0.00 0.00 0.00 0.00 0.02 0.05 0.07 0.07 0.12 0.17 0.15 0.19 0.21 0.27 0.43 0.48 0.41 0.41 0.54 0.68 0.89 0.99 0.86 0.83 0.84 0.79 0.73 0.54 0.39 0.29 0.24 0.20 0.18 0.19
0.00 0.00 0.00 0.00 0.00 0.00 0.00 0.00 0.00 0.00 0.00 0.00 0.00 0.00 0.02 0.08 0.13 0.15 0.13 0.14 0.13 0.12 0.13 0.19 0.35 0.52 0.68 0.78 0.93 1.11 1.29 1.25 1.06 0.99 0.93 0.83 0.79 0.68 0.57 0.49 0.35 0.27 0.25 0.26
0.00 0.00 0.00 0.00 0.00 0.00 0.00 0.00 0.00 0.00 0.00 0.00 0.00 0.00 0.01 0.03 0.06 0.11 0.16 0.17 0.12 0.09 0.13 0.21 0.32 0.54 0.84 1.14 1.39 1.51 1.51 1.39 1.22 1.10 1.00 0.93 0.84 0.68 0.55 0.45 0.34 0.29 0.29 0.31
0.01 0.00 0.00 0.00 0.00 0.00 0.00 0.00 0.00 0.00 0.00 0.00 0.00 0.00 0.00 0.00 0.01 0.03 0.09 0.15 0.16 0.19 0.24 0.31 0.43 0.62 0.74 0.96 1.19 1.35 1.36 1.26 1.10 0.99 0.88 0.76 0.63 0.51 0.43 0.35 0.28 0.26 0.31 0.29
0.03 0.02 0.01 0.01 0.00 0.00 0.00 0.00 0.00 0.00 0.00 0.00 0.00 0.00 0.00 0.01 0.01 0.02 0.07 0.13 0.19 0.31 0.35 0.41 0.54 0.68 0.71 0.74 0.84 0.93 0.97 0.92 0.83 0.73 0.65 0.65 0.62 0.56 0.48 0.41 0.33 0.31 0.28 0.25
0.05 0.03 0.03 0.03 0.02 0.01 0.00 0.01 0.02 0.01 0.00 0.00 0.00 0.00 0.01 0.01 0.02 0.04 0.06 0.13 0.24 0.41 0.51 0.62 0.73 0.79 0.83 0.77 0.74 0.76 0.76 0.68 0.56 0.47 0.40 0.41 0.41 0.41 0.40 0.38 0.34 0.33 0.31 0.29
0.11 0.04 0.04 0.06 0.05 0.04 0.03 0.05 0.09 0.05 0.01 0.00 0.01 0.02 0.02 0.01 0.02 0.07 0.10 0.15 0.28 0.44 0.54 0.69 0.78 0.67 0.57 0.51 0.50 0.49 0.44 0.35 0.27 0.26 0.25 0.25 0.25 0.27 0.27 0.28 0.29 0.29 0.29 0.26
0.05 0.03 0.04 0.06 0.08 0.07 0.11 0.14 0.11 0.12 0.06 0.04 0.03 0.05 0.02 0.03 0.04 0.08 0.16 0.23 0.29 0.36 0.40 0.42 0.41 0.41 0.40 0.37 0.32 0.26 0.21 0.17 0.14 0.14 0.15 0.16 0.16 0.17 0.17 0.17 0.18 0.18 0.17 0.14
0.00 0.01 0.02 0.02 0.04 0.06 0.11 0.20 0.23 0.22 0.18 0.12 0.08 0.10 0.09 0.06 0.06 0.08 0.20 0.47 0.46 0.33 0.32 0.33 0.34 0.34 0.31 0.25 0.19 0.14 0.14 0.14 0.12 0.09 0.10 0.09 0.09 0.08 0.09 0.11 0.10 0.09 0.07 0.05
0.01 0.03 0.04 0.05 0.06 0.09 0.16 0.21 0.23 0.23 0.22 0.18 0.13 0.12 0.09 0.20 0.14 0.11 0.21 0.35 0.33 0.21 0.15 0.14 0.14 0.15 0.18 0.23 0.22 0.13 0.10 0.09 0.07 0.04 0.03 0.02 0.02 0.02 0.02 0.02 0.02 0.02 0.01 0.01
0.02 0.02 0.03 0.04 0.06 0.06 0.12 0.21 0.23 0.21 0.18 0.16 0.12 0.14 0.08 0.17 0.13 0.10 0.18 0.16 0.13 0.08 0.05 0.04 0.04 0.05 0.07 0.10 0.10 0.07 0.05 0.04 0.03 0.02 0.01 0.00 0.00 0.00 0.00 0.00 0.00 0.00 0.00 0.00
0.00 0.01 0.02 0.05 0.09 0.08 0.10 0.13 0.15 0.17 0.15 0.16 0.18 0.21 0.09 0.05 0.05 0.05 0.06 0.05 0.03 0.02 0.01 0.01 0.01 0.01 0.02 0.04 0.06 0.06 0.04 0.04 0.03 0.01 0.01 0.00 0.00 0.00 0.00 0.00 0.00 0.00 0.00 0.00
0.00 0.00 0.01 0.04 0.05 0.04 0.05 0.08 0.11 0.13 0.14 0.12 0.11 0.13 0.09 0.07 0.07 0.07 0.06 0.04 0.02 0.01 0.00 0.00 0.00 0.00 0.01 0.03 0.06 0.07 0.06 0.05 0.03 0.02 0.01 0.01 0.00 0.00 0.00 0.00 0.00 0.00 0.00 0.00
0.00 0.01 0.02 0.02 0.02 0.02 0.03 0.06 0.09 0.12 0.11 0.10 0.10 0.12 0.11 0.08 0.07 0.07 0.07 0.06 0.03 0.01 0.00 0.00 0.00 0.00 0.01 0.03 0.07 0.10 0.10 0.07 0.04 0.03 0.02 0.02 0.01 0.01 0.00 0.00 0.00 0.00 0.00 0.00
0.00 0.01 0.03 0.05 0.06 0.08 0.12 0.13 0.11 0.10 0.09 0.08 0.08 0.08 0.05 0.06 0.08 0.09 0.09 0.08 0.06 0.03 0.01 0.00 0.00 0.00 0.00 0.01 0.02 0.06 0.09 0.09 0.06 0.05 0.05 0.03 0.03 0.02 0.01 0.01 0.00 0.00 0.00 0.00
0.01 0.01 0.02 0.04 0.12 0.15 0.16 0.14 0.21 0.23 0.17 0.13 0.13 0.10 0.05 0.05 0.04 0.04 0.05 0.07 0.07 0.04 0.02 0.00 0.01 0.00 0.00 0.00 0.01 0.02 0.04 0.06 0.06 0.06 0.06 0.06 0.06 0.05 0.05 0.04 0.02 0.01 0.00 0.00
0.01 0.00 0.02 0.05 0.14 0.18 0.13 0.04 0.05 0.09 0.11 0.12 0.11 0.08 0.06 0.04 0.03 0.02 0.01 0.02 0.03 0.02 0.02 0.01 0.01 0.01 0.01 0.00 0.01 0.01 0.03 0.04 0.06 0.09 0.12 0.14 0.15 0.12 0.10 0.10 0.06 0.04 0.02 0.01
0.00 0.00 0.02 0.05 0.09 0.10 0.07 0.03 0.01 0.02 0.03 0.01 0.01 0.01 0.01 0.01 0.01 0.01 0.00 0.00 0.01 0.02 0.02 0.02 0.01 0.02 0.03 0.02 0.01 0.01 0.03 0.05 0.06 0.09 0.15 0.21 0.22 0.17 0.14 0.14 0.10 0.08 0.07 0.04
0.00 0.00 0.01 0.03 0.07 0.09 0.04 0.01 0.00 0.01 0.03 0.00 0.01 0.01 0.01 0.02 0.02 0.01 0.00 0.00 0.00 0.02 0.06 0.06 0.04 0.06 0.07 0.04 0.02 0.02 0.03 0.05 0.08 0.13 0.18 0.22 0.20 0.16 0.13 0.12 0.10 0.09 0.08 0.07
0.00 0.00 0.00 0.01 0.04 0.04 0.01 0.01 0.01 0.02 0.02 0.00 0.00 0.01 0.01 0.02 0.02 0.01 0.00 0.00 0.00 0.01 0.05 0.08 0.10 0.13 0.11 0.06 0.05 0.06 0.05 0.07 0.11 0.15 0.18 0.24 0.23 0.15 0.10 0.09 0.09 0.07 0.07 0.07
0.00 0.00 0.00 0.01 0.03 0.02 0.00 0.00 0.01 0.01 0.00 0.00 0.00 0.00 0.00 0.00 0.01 0.02 0.02 0.01 0.01 0.01 0.03 0.10 0.16 0.17 0.14 0.14 0.17 0.15 0.14 0.14 0.15 0.17 0.18 0.22 0.23 0.18 0.13 0.12 0.10 0.08 0.08 0.09
0.00 0.00 0.00 0.00 0.00 0.00 0.00 0.00 0.00 0.00 0.00 0.00 0.00 0.00 0.00 0.00 0.00 0.01 0.01 0.02 0.05 0.06 0.05 0.07 0.10 0.11 0.11 0.16 0.20 0.25 0.27 0.22 0.20 0.19 0.20 0.20 0.21 0.20 0.15 0.13 0.13 0.11 0.10 0.11
0.00 0.00 0.00 0.00 0.00 0.00 0.00 0.00 0.00 0.00 0.00 0.00 0.00 0.00 0.00 0.00 0.00 0.00 0.00 0.01 0.03 0.04 0.02 0.01 0.02 0.03 0.05 0.07 0.12 0.19 0.25 0.24 0.21 0.19 0.21 0.23 0.22 0.24 0.21 0.18 0.19 0.18 0.16 0.14
0.00 0.00 0.00 0.00 0.00 0.00 0.00 0.00 0.00 0.00 0.00 0.00 0.00 0.00 0.00 0.00 0.00 0.00 0.00 0.00 0.01 0.01 0.01 0.01 0.01 0.02 0.02 0.04 0.05 0.07 0.11 0.14 0.16 0.15 0.21 0.27 0.25 0.26 0.24 0.21 0.20 0.22 0.21 0.19
0.00 0.00 0.00 0.00 0.00 0.00 0.00 0.00 0.00 0.00 0.00 0.00 0.00 0.00 0.00 0.00 0.00 0.00 0.00 0.00 0.00 0.00 0.00 0.00 0.00 0.00 0.00 0.01 0.02 0.04 0.06 0.09 0.13 0.14 0.14 0.16 0.17 0.18 0.19 0.18 0.15 0.13 0.11 0.10

GEFSCGP_prec_meanprecacc_024.txt.gz
Total_Precipitation_Accumulation
0.00 0.00 0.00 0.00 0.00 0.00 0.00 0.00 0.00 0.00 0.00 0.00 0.00 0.00 0.01 0.03 0.07 0.13 0.25 0.35 0.38 0.36 0.29 0.24 0.24 0.32 0.28 0.26 0.31 0.29 0.35 0.56 0.71 0.65 0.67 0.72 0.68 0.55 0.38 0.24 0.19 0.18 0.17 0.23
0.00 0.00 0.00 0.00 0.00 0.00 0.00 0.00 0.00 0.00 0.00 0.00 0.00 0.00 0.02 0.05 0.07 0.07 0.13 0.19 0.26 0.43 0.43 0.39 0.45 0.48 0.41 0.46 0.59 0.73 0.97 1.13 1.00 0.99 1.07 1.05 0.98 0.72 0.53 0.38 0.30 0.25 0.24 0.26
0.00 0.00 0.00 0.00 0.00 0.00 0.00 0.00 0.00 0.00 0.00 0.00 0.00 0.00 0.02 0.08 0.13 0.15 0.13 0.14 0.14 0.16 0.20 0.25 0.36 0.52 0.70 0.86 1.02 1.23 1.45 1.40 1.20 1.17 1.13 0.96 0.92 0.78 0.65 0.56 0.42 0.31 0.29 0.32
0.00 0.00 0.00 0.00 0.00 0.00 0.00 0.00 0.00 0.00 0.00 0.00 0.00 0.00 0.01 0.03 0.06 0.11 0.16 0.17 0.12 0.09 0.15 0.24 0.35 0.56 0.87 1.20 1.49 1.65 1.63 1.53 1.36 1.28 1.16 1.06 0.93 0.76 0.65 0.55 0.41 0.34 0.33 0.36
0.01 0.00 0.00 0.00 0.00 0.00 0.00 0.00 0.00 0.00 0.00 0.00 0.00 0.00 0.00 0.00 0.01 0.03 0.10 0.16 0.16 0.19 0.25 0.34 0.48 0.68 0.80 1.02 1.28 1.46 1.48 1.40 1.24 1.13 1.02 0.88 0.73 0.62 0.53 0.42 0.35 0.34 0.39 0.36
0.03 0.02 0.01 0.01 0.00 0.00 0.00 0.00 0.00 0.00 0.00 0.00 0.00 0.00 0.00 0.01 0.01 0.03 0.10 0.16 0.22 0.33 0.37 0.44 0.57 0.73 0.78 0.81 0.91 1.03 1.08 1.03 0.93 0.83 0.75 0.74 0.72 0.67 0.58 0.50 0.43 0.41 0.39 0.33
0.05 0.03 0.03 0.03 0.02 0.01 0.00 0.01 0.04 0.02 0.00 0.00 0.00 0.00 0.01 0.02 0.03 0.06 0.13 0.23 0.33 0.46 0.53 0.64 0.76 0.82 0.88 0.83 0.81 0.83 0.85 0.77 0.64 0.53 0.46 0.48 0.48 0.49 0.50 0.50 0.47 0.47 0.47 0.45
0.12 0.04 0.05 0.07 0.06 0.04 0.03 0.05 0.13 0.09 0.02 0.01 0.01 0.03 0.06 0.04 0.04 0.09 0.14 0.20 0.33 0.47 0.57 0.71 0.79 0.69 0.60 0.55 0.54 0.55 0.52 0.43 0.33 0.31 0.31 0.31 0.31 0.35 0.38 0.39 0.42 0.45 0.47 0.46
0.05 0.04 0.05 0.07 0.08 0.07 0.11 0.15 0.12 0.19 0.14 0.11 0.05 0.07 0.10 0.09 0.13 0.16 0.20 0.26 0.30 0.37 0.41 0.44 0.42 0.43 0.43 0.42 0.40 0.35 0.32 0.27 0.22 0.20 0.21 0.21 0.21 0.24 0.25 0.26 0.28 0.31 0.31 0.26
0.00 0.02 0.03 0.03 0.04 0.06 0.11 0.21 0.30 0.40 0.36 0.26 0.12 0.13 0.24 0.29 0.30 0.30 0.33 0.51 0.48 0.34 0.33 0.34 0.36 0.37 0.34 0.29 0.27 0.25 0.27 0.28 0.23 0.18 0.16 0.14 0.13 0.12 0.14 0.17 0.17 0.15 0.13 0.10
0.01 0.03 0.04 0.05 0.07 0.11 0.20 0.26 0.34 0.42 0.40 0.34 0.26 0.25 0.21 0.41 0.43 0.39 0.43 0.47 0.39 0.23 0.17 0.16 0.16 0.17 0.21 0.29 0.32 0.26 0.24 0.22 0.17 0.11 0.07 0.05 0.04 0.03 0.03 0.03 0.03 0.03 0.02 0.02
0.02 0.03 0.03 0.05 0.07 0.07 0.15 0.27 0.37 0.44 0.41 0.37 0.32 0.32 0.17 0.27 0.28 0.26 0.30 0.24 0.18 0.11 0.06 0.05 0.05 0.07 0.13 0.18 0.19 0.20 0.18 0.17 0.13 0.08 0.04 0.03 0.02 0.01 0.01 0.00 0.00 0.00 0.00 0.00
0.00 0.01 0.02 0.06 0.12 0.11 0.12 0.15 0.21 0.30 0.35 0.34 0.36 0.39 0.21 0.14 0.16 0.15 0.15 0.12 0.07 0.05 0.03 0.02 0.02 0.03 0.05 0.08 0.11 0.13 0.13 0.13 0.10 0.06 0.03 0.02 0.01 0.01 0.00 0.00 0.00 0.00 0.00 0.00
0.00 0.00 0.02 0.06 0.08 0.07 0.09 0.13 0.17 0.24 0.31 0.27 0.23 0.26 0.29 0.24 0.20 0.16 0.12 0.09 0.06 0.03 0.02 0.01 0.01 0.01 0.02 0.04 0.07 0.10 0.09 0.07 0.06 0.04 0.03 0.03 0.03 0.02 0.01 0.00 0.00 0.00 0.00 0.00
0.00 0.01 0.02 0.02 0.02 0.02 0.04 0.07 0.11 0.16 0.18 0.21 0.19 0.23 0.30 0.27 0.20 0.14 0.10 0.08 0.07 0.06 0.03 0.02 0.01 0.01 0.01 0.04 0.08 0.13 0.13 0.10 0.06 0.06 0.06 0.07 0.05 0.04 0.02 0.01 0.00 0.00 0.00 0.00
0.00 0.01 0.03 0.05 0.06 0.09 0.12 0.13 0.11 0.11 0.10 0.12 0.15 0.22 0.21 0.19 0.16 0.14 0.12 0.10 0.08 0.06 0.05 0.04 0.03 0.02 0.01 0.02 0.03 0.08 0.12 0.12 0.09 0.09 0.09 0.07 0.06 0.05 0.04 0.03 0.02 0.02 0.01 0.00
0.01 0.01 0.02 0.05 0.12 0.16 0.17 0.14 0.21 0.24 0.19 0.18 0.26 0.27 0.19 0.13 0.09 0.07 0.07 0.08 0.08 0.06 0.05 0.05 0.05 0.04 0.03 0.03 0.04 0.06 0.08 0.08 0.08 0.08 0.08 0.08 0.09 0.08 0.08 0.06 0.05 0.05 0.04 0.02
0.01 0.01 0.03 0.06 0.16 0.22 0.15 0.04 0.05 0.10 0.12 0.13 0.17 0.16 0.12 0.09 0.05 0.03 0.02 0.03 0.04 0.03 0.03 0.03 0.04 0.04 0.04 0.04 0.06 0.06 0.07 0.08 0.08 0.11 0.14 0.16 0.17 0.15 0.14 0.14 0.11 0.09 0.06 0.04
0.00 0.00 0.02 0.05 0.10 0.11 0.08 0.03 0.01 0.04 0.05 0.01 0.03 0.03 0.02 0.01 0.03 0.05 0.02 0.01 0.02 0.02 0.03 0.03 0.02 0.04 0.06 0.06 0.07 0.07 0.09 0.10 0.11 0.12 0.17 0.23 0.24 0.20 0.18 0.17 0.14 0.12 0.10 0.07
0.00 0.00 0.01 0.03 0.08 0.10 0.04 0.01 0.00 0.02 0.07 0.01 0.01 0.02 0.02 0.04 0.10 0.13 0.04 0.00 0.00 0.03 0.07 0.07 0.06 0.08 0.12 0.10 0.08 0.10 0.11 0.13 0.15 0.17 0.22 0.26 0.25 0.21 0.19 0.17 0.14 0.12 0.12 0.10
0.00 0.00 0.00 0.01 0.04 0.04 0.01 0.01 0.01 0.05 0.10 0.01 0.00 0.01 0.01 0.04 0.08 0.07 0.01 0.00 0.01 0.02 0.07 0.10 0.13 0.19 0.18 0.13 0.12 0.14 0.14 0.15 0.17 0.20 0.23 0.30 0.30 0.20 0.16 0.16 0.14 0.12 0.12 0.11
0.00 0.00 0.00 0.01 0.03 0.02 0.00 0.00 0.01 0.02 0.01 0.00 0.00 0.00 0.00 0.01 0.01 0.02 0.02 0.01 0.02 0.03 0.06 0.12 0.21 0.24 0.20 0.19 0.22 0.23 0.22 0.20 0.20 0.21 0.22 0.27 0.28 0.21 0.16 0.17 0.16 0.14 0.14 0.14
0.00 0.00 0.00 0.00 0.00 0.00 0.00 0.00 0.00 0.00 0.00 0.00 0.00 0.00 0.00 0.00 0.01 0.01 0.01 0.03 0.06 0.07 0.08 0.09 0.14 0.16 0.16 0.20 0.25 0.32 0.33 0.26 0.23 0.22 0.24 0.24 0.25 0.25 0.20 0.17 0.17 0.16 0.14 0.15
0.00 0.00 0.00 0.00 0.00 0.00 0.00 0.00 0.00 0.00 0.00 0.00 0.00 0.00 0.00 0.00 0.00 0.00 0.00 0.01 0.04 0.06 0.04 0.02 0.04 0.08 0.12 0.13 0.17 0.24 0.28 0.27 0.25 0.23 0.26 0.29 0.28 0.30 0.27 0.23 0.22 0.22 0.19 0.18
0.00 0.00 0.00 0.00 0.00 0.00 0.00 0.00 0.00 0.00 0.00 0.00 0.00 0.00 0.00 0.00 0.00 0.00 0.00 0.00 0.01 0.03 0.02 0.02 0.04 0.07 0.09 0.10 0.10 0.10 0.12 0.17 0.20 0.21 0.28 0.34 0.33 0.32 0.29 0.24 0.22 0.23 0.23 0.21
0.00 0.00 0.00 0.00 0.00 0.00 0.00 0.00 0.00 0.00 0.00 0.00 0.00 0.00 0.00 0.00 0.00 0.00 0.00 0.00 0.00 0.01 0.01 0.01 0.01 0.03 0.03 0.04 0.04 0.05 0.08 0.11 0.17 0.20 0.20 0.22 0.24 0.24 0.24 0.22 0.17 0.13 0.11 0.10

GEFSCGP_prec_meanprecacc_030.txt.gz
Total_Precipitation_Accumulation
0.00 0.00 0.00 0.00 0.00 0.00 0.00 0.00 0.00 0.00 0.00 0.00 0.00 0.00 0.01 0.03 0.09 0.19 0.40 0.61 0.79 0.87 0.85 0.80 0.71 0.71 0.59 0.46 0.44 0.35 0.39 0.59 0.73 0.66 0.69 0.73 0.69 0.58 0.41 0.28 0.23 0.23 0.21 0.27
0.00 0.00 0.00 0.00 0.00 0.00 0.00 0.00 0.00 0.00 0.00 0.00 0.00 0.00 0.02 0.06 0.07 0.08 0.17 0.31 0.48 0.78 0.94 0.97 0.97 0.90 0.74 0.73 0.79 0.89 1.11 1.23 1.05 1.03 1.12 1.09 1.01 0.75 0.58 0.43 0.35 0.30 0.28 0.30
0.00 0.00 0.00 0.00 0.00 0.00 0.00 0.00 0.00 0.00 0.00 0.00 0.00 0.00 0.02 0.08 0.13 0.15 0.14 0.16 0.19 0.30 0.44 0.58 0.71 0.81 0.98 1.19 1.35 1.53 1.68 1.58 1.34 1.30 1.25 1.04 0.96 0.80 0.68 0.60 0.46 0.35 0.33 0.35
0.00 0.00 0.00 0.00 0.00 0.00 0.00 0.00 0.00 0.00 0.00 0.00 0.00 0.00 0.01 0.03 0.07 0.12 0.17 0.19 0.16 0.16 0.26 0.43 0.63 0.92 1.26 1.55 1.87 2.08 2.03 1.88 1.65 1.52 1.35 1.20 1.03 0.84 0.71 0.60 0.45 0.37 0.36 0.39
0.01 0.00 0.00 0.00 0.00 0.00 0.00 0.00 0.00 0.00 0.00 0.00 0.00 0.00 0.00 0.00 0.01 0.04 0.11 0.19 0.23 0.29 0.38 0.53 0.73 1.00 1.21 1.49 1.76 1.93 1.97 1.86 1.67 1.49 1.29 1.12 0.91 0.76 0.63 0.49 0.40 0.37 0.42 0.38
0.03 0.02 0.01 0.01 0.00 0.00 0.00 0.00 0.00 0.00 0.00 0.00 0.00 0.00 0.00 0.01 0.02 0.04 0.14 0.23 0.33 0.50 0.59 0.72 0.92 1.09 1.15 1.28 1.48 1.58 1.57 1.44 1.30 1.14 1.01 0.97 0.93 0.86 0.73 0.61 0.51 0.47 0.43 0.36
0.05 0.03 0.04 0.03 0.02 0.01 0.00 0.01 0.04 0.02 0.00 0.00 0.00 0.00 0.04 0.05 0.05 0.10 0.19 0.34 0.51 0.71 0.83 0.93 1.12 1.23 1.25 1.17 1.15 1.18 1.19 1.10 0.95 0.82 0.74 0.73 0.69 0.68 0.63 0.60 0.55 0.52 0.51 0.48
0.12 0.04 0.06 0.08 0.06 0.04 0.03 0.06 0.16 0.12 0.03 0.01 0.01 0.05 0.14 0.14 0.16 0.21 0.27 0.36 0.54 0.69 0.80 0.96 1.03 0.92 0.83 0.77 0.76 0.80 0.80 0.71 0.59 0.56 0.54 0.50 0.50 0.50 0.49 0.46 0.47 0.49 0.50 0.47
0.05 0.04 0.06 0.08 0.08 0.08 0.12 0.16 0.14 0.23 0.17 0.14 0.05 0.09 0.18 0.20 0.30 0.39 0.47 0.53 0.56 0.59 0.59 0.61 0.61 0.61 0.59 0.55 0.54 0.51 0.49 0.45 0.40 0.36 0.36 0.36 0.35 0.34 0.34 0.32 0.33 0.33 0.33 0.26
0.01 0.02 0.03 0.03 0.05 0.06 0.12 0.22 0.32 0.47 0.44 0.32 0.14 0.15 0.31 0.44 0.48 0.54 0.70 0.91 0.79 0.57 0.49 0.48 0.47 0.49 0.44 0.39 0.37 0.36 0.41 0.45 0.41 0.33 0.29 0.25 0.22 0.18 0.19 0.21 0.19 0.15 0.14 0.10
0.01 0.03 0.04 0.05 0.07 0.11 0.20 0.28 0.38 0.48 0.49 0.44 0.35 0.33 0.30 0.57 0.64 0.62 0.67 0.72 0.64 0.44 0.31 0.26 0.24 0.26 0.29 0.36 0.40 0.38 0.39 0.39 0.34 0.24 0.17 0.13 0.10 0.08 0.06 0.05 0.05 0.04 0.03 0.02
0.02 0.03 0.03 0.05 0.07 0.07 0.15 0.28 0.39 0.48 0.47 0.47 0.45 0.44 0.27 0.42 0.48 0.49 0.55 0.46 0.36 0.26 0.18 0.13 0.11 0.12 0.18 0.24 0.27 0.31 0.32 0.32 0.27 0.20 0.14 0.08 0.06 0.04 0.03 0.02 0.01 0.00 0.00 0.00
0.00 0.01 0.02 0.06 0.12 0.11 0.12 0.15 0.22 0.31 0.37 0.37 0.41 0.46 0.30 0.30 0.37 0.39 0.36 0.30 0.22 0.16 0.11 0.07 0.06 0.07 0.08 0.12 0.17 0.21 0.23 0.24 0.20 0.13 0.09 0.06 0.04 0.02 0.01 0.00 0.00 0.00 0.00 0.00
0.00 0.00 0.02 0.06 0.08 0.07 0.09 0.13 0.17 0.24 0.33 0.29 0.25 0.29 0.33 0.33 0.33 0.32 0.26 0.20 0.15 0.10 0.07 0.05 0.04 0.04 0.04 0.07 0.10 0.14 0.15 0.13 0.10 0.08 0.06 0.05 0.04 0.03 0.02 0.01 0.00 0.00 0.00 0.00
0.00 0.01 0.02 0.02 0.02 0.02 0.04 0.07 0.11 0.17 0.20 0.24 0.21 0.25 0.33 0.33 0.29 0.24 0.21 0.18 0.15 0.12 0.07 0.04 0.03 0.02 0.02 0.05 0.09 0.14 0.15 0.13 0.10 0.10 0.10 0.09 0.07 0.05 0.03 0.01 0.01 0.01 0.00 0.00
0.00 0.01 0.03 0.05 0.06 0.09 0.12 0.13 0.11 0.11 0.11 0.14 0.18 0.25 0.26 0.25 0.25 0.24 0.22 0.18 0.14 0.11 0.08 0.06 0.04 0.03 0.02 0.02 0.04 0.09 0.13 0.13 0.12 0.12 0.12 0.11 0.09 0.06 0.04 0.04 0.03 0.02 0.01 0.01
0.01 0.01 0.02 0.05 0.12 0.16 0.17 0.14 0.21 0.24 0.19 0.19 0.29 0.31 0.24 0.22 0.17 0.14 0.12 0.11 0.11 0.08 0.07 0.06 0.05 0.04 0.03 0.04 0.05 0.08 0.10 0.10 0.12 0.11 0.10 0.10 0.10 0.09 0.08 0.06 0.06 0.06 0.04 0.03
0.01 0.01 0.03 0.06 0.16 0.22 0.15 0.04 0.05 0.10 0.12 0.13 0.17 0.17 0.14 0.12 0.08 0.04 0.03 0.04 0.04 0.04 0.04 0.04 0.04 0.04 0.04 0.05 0.07 0.09 0.11 0.11 0.12 0.15 0.17 0.17 0.18 0.16 0.14 0.14 0.11 0.09 0.06 0.04
0.00 0.00 0.02 0.05 0.10 0.12 0.08 0.03 0.01 0.04 0.05 0.01 0.03 0.03 0.03 0.01 0.03 0.06 0.03 0.01 0.02 0.03 0.03 0.03 0.03 0.04 0.07 0.07 0.08 0.10 0.14 0.14 0.15 0.15 0.19 0.24 0.25 0.21 0.18 0.18 0.14 0.12 0.10 0.07
0.00 0.00 0.01 0.03 0.08 0.10 0.05 0.01 0.00 0.02 0.07 0.01 0.01 0.02 0.02 0.04 0.11 0.15 0.05 0.00 0.00 0.03 0.07 0.07 0.06 0.09 0.13 0.12 0.10 0.13 0.16 0.18 0.21 0.22 0.25 0.28 0.26 0.22 0.19 0.18 0.15 0.12 0.12 0.10
0.00 0.00 0.00 0.01 0.04 0.04 0.01 0.01 0.01 0.05 0.10 0.01 0.00 0.01 0.01 0.04 0.09 0.07 0.01 0.00 0.01 0.02 0.07 0.11 0.14 0.21 0.20 0.15 0.15 0.18 0.18 0.20 0.21 0.23 0.25 0.32 0.31 0.21 0.16 0.16 0.15 0.13 0.12 0.12
0.00 0.00 0.00 0.01 0.03 0.02 0.00 0.00 0.01 0.02 0.01 0.00 0.00 0.00 0.00 0.01 0.01 0.02 0.02 0.01 0.02 0.03 0.06 0.13 0.22 0.26 0.22 0.20 0.24 0.26 0.25 0.23 0.22 0.23 0.23 0.28 0.29 0.21 0.17 0.18 0.17 0.14 0.14 0.15
0.00 0.00 0.00 0.00 0.00 0.00 0.00 0.00 0.00 0.00 0.00 0.00 0.00 0.00 0.00 0.00 0.01 0.01 0.01 0.03 0.06 0.07 0.08 0.09 0.15 0.17 0.18 0.21 0.27 0.34 0.35 0.27 0.24 0.23 0.25 0.25 0.26 0.26 0.21 0.18 0.18 0.16 0.14 0.16
0.00 0.00 0.00 0.00 0.00 0.00 0.00 0.00 0.00 0.00 0.00 0.00 0.00 0.00 0.00 0.00 0.00 0.00 0.00 0.01 0.04 0.06 0.04 0.03 0.05 0.10 0.14 0.15 0.19 0.25 0.29 0.28 0.26 0.24 0.27 0.30 0.29 0.30 0.27 0.23 0.22 0.22 0.20 0.19
0.00 0.00 0.00 0.00 0.00 0.00 0.00 0.00 0.00 0.00 0.00 0.00 0.00 0.00 0.00 0.00 0.00 0.00 0.00 0.00 0.01 0.03 0.02 0.03 0.04 0.08 0.10 0.12 0.11 0.11 0.13 0.17 0.21 0.21 0.29 0.35 0.34 0.33 0.29 0.25 0.22 0.23 0.23 0.21
0.00 0.00 0.00 0.00 0.00 0.00 0.00 0.00 0.00 0.00 0.00 0.00 0.00 0.00 0.00 0.00 0.00 0.00 0.00 0.00 0.00 0.01 0.01 0.01 0.02 0.03 0.04 0.04 0.05 0.06 0.08 0.11 0.17 0.21 0.20 0.23 0.24 0.25 0.25 0.22 0.17 0.13 0.11 0.10